TimeEDT,TemperatureF,Dew PointF,Humidity,Sea Level PressureIn,VisibilityMPH,Wind Direction,Wind SpeedMPH,Gust SpeedMPH,PrecipitationIn,Events,Conditions,WindDirDegrees,DateUTC
12:52 AM,60.1,48.9,67,29.96,10.0,NW,4.6,-,N/A,,Clear,320,2013-10-08 04:52:00
1:52 AM,57.9,46.9,67,30.00,10.0,Variable,4.6,-,N/A,,Clear,0,2013-10-08 05:52:00
2:52 AM,55.9,46.0,69,30.02,10.0,WNW,4.6,-,N/A,,Clear,290,2013-10-08 06:52:00
3:52 AM,52.0,46.9,83,30.04,10.0,Calm,Calm,-,N/A,,Clear,0,2013-10-08 07:52:00
4:52 AM,54.0,45.0,72,30.07,10.0,WNW,6.9,-,N/A,,Clear,290,2013-10-08 08:52:00
5:52 AM,53.1,45.0,74,30.09,10.0,Calm,Calm,-,N/A,,Clear,0,2013-10-08 09:52:00
6:52 AM,48.9,45.0,86,30.13,10.0,Calm,Calm,-,N/A,,Clear,0,2013-10-08 10:52:00
7:52 AM,52.0,45.0,77,30.15,10.0,NW,4.6,-,N/A,,Clear,320,2013-10-08 11:52:00
8:52 AM,55.9,45.0,67,30.19,10.0,NW,8.1,-,N/A,,Clear,320,2013-10-08 12:52:00
9:52 AM,59.0,43.0,55,30.21,10.0,NW,11.5,19.6,N/A,,Clear,310,2013-10-08 13:52:00
10:52 AM,61.0,37.9,42,30.22,10.0,North,16.1,19.6,N/A,,Clear,350,2013-10-08 14:52:00
11:52 AM,62.1,39.9,44,30.22,10.0,NNW,10.4,18.4,N/A,,Clear,340,2013-10-08 15:52:00
12:52 PM,63.0,39.9,43,30.22,10.0,NW,9.2,-,N/A,,Clear,320,2013-10-08 16:52:00
1:52 PM,64.9,39.0,39,30.21,10.0,NNW,11.5,-,N/A,,Clear,330,2013-10-08 17:52:00
2:52 PM,66.0,37.0,34,30.22,10.0,North,9.2,-,N/A,,Clear,10,2013-10-08 18:52:00
3:52 PM,66.9,35.1,31,30.23,10.0,NNW,9.2,-,N/A,,Clear,340,2013-10-08 19:52:00
4:52 PM,64.9,39.0,39,30.24,10.0,NW,3.5,-,N/A,,Clear,320,2013-10-08 20:52:00
5:52 PM,60.1,46.9,62,30.27,10.0,Calm,Calm,-,N/A,,Clear,0,2013-10-08 21:52:00
6:52 PM,55.0,46.9,74,30.29,10.0,NNE,3.5,-,N/A,,Clear,30,2013-10-08 22:52:00
7:52 PM,53.1,48.0,83,30.31,10.0,Calm,Calm,-,N/A,,Clear,0,2013-10-08 23:52:00
8:52 PM,50.0,46.0,86,30.34,10.0,North,3.5,-,N/A,,Clear,360,2013-10-09 00:52:00
9:52 PM,48.0,45.0,89,30.35,10.0,Calm,Calm,-,N/A,,Clear,0,2013-10-09 01:52:00
10:52 PM,46.0,44.1,93,30.37,10.0,Calm,Calm,-,N/A,,Clear,0,2013-10-09 02:52:00
11:52 PM,46.0,43.0,89,30.38,10.0,Calm,Calm,-,N/A,,Clear,0,2013-10-09 03:52:00